Regional Weather Roundup
Issued by NWS

Home | Current Version | Previous Version | Text Only | Print | Product List | Glossary On
Versions: 1 2 3 4 5 6 7 8 9 10 11 12 13 14 15 16 17 18 19 20 21 22 23 24 25 26 27 28 29 30 31 32 33 34 35 36 37 38 39 40 41 42 43 44 45 46 47 48 49 50
000
ASUS42 KFFC 010403
RWRGA
WEATHER ROUNDUP FOR GEORGIA
NATIONAL WEATHER SERVICE PEACHTREE CITY GA
1200 AM EDT TUE SEP 01 2015

NOTE: "FAIR" INDICATES FEW OR NO CLOUDS BELOW 12,000 FEET WITH NO
SIGNIFICANT WEATHER AND/OR OBSTRUCTIONS TO VISIBILITY.

* = USE WITH CAUTION. THE STATIONS MARKED WITH AN ASTERISK MAY NOT
REPORT WEATHER SUCH AS PRECIPITATION, FOG, OR THUNDER AND ARE NOT
QUALITY CONTROLLED BY NWS.

THE REMARK "TC" DENOTES TEMPERATURE READING IN DEGREES CELSIUS.

GAZ001>058-010500-
NORTH GEORGIA

CITY           SKY/WX    TMP DP  RH WIND       PRES   REMARKS
ATLANTA        CLEAR     73  68  84 CALM      30.13R
ATHENS         CLEAR     71  69  93 CALM      30.12S
CHAMBLEE       CLEAR     70  69  97 CALM      30.13R
PEACHTREE CITY CLEAR     68  68 100 CALM      30.13S FOG
ROME           CLEAR     70  67  90 CALM      30.11R
WEST ATLANTA   CLEAR     71  68  90 CALM      30.12S
GAINESVILLE    CLEAR     71  67  87 CALM      30.16S
CARTERSVILLE   CLEAR     67  67 100 CALM      30.13R


CITY           SKY/WX    TMP DP  RH WIND       PRES   REMARKS
DALTON*        CLEAR     68  68 100 CALM      30.12S
MARIETTA       CLEAR     71  69  93 W2        30.13R
BLAIRSVILLE*     N/A     67  59  76 CALM      30.18S
$$

GAZ059>098-102>109-010500-
CENTRAL GEORGIA

CITY           SKY/WX    TMP DP  RH WIND       PRES   REMARKS
AUGUSTA-BUSH   CLEAR     69  69 100 CALM      30.09S FOG
AUGUSTA-DANIEL CLEAR     79  68  69 CALM      30.11S
COLUMBUS       CLEAR     76  70  82 E5        30.09R
MACON          CLEAR     72  70  93 CALM      30.10S
ROBINS AFB     CLEAR     73  71  95 E2        30.09S


CITY           SKY/WX    TMP DP  RH WIND       PRES   REMARKS
LAGRANGE*      CLEAR     73  73 100 CALM      30.11S
SYLVANIA*      CLEAR     71  71 100 CALM      30.11S
MILLEDGEVILLE* CLEAR     72  70  94 CALM      30.11S
$$

GAZ099>101-110>166-010500-
SOUTH GEORGIA

CITY           SKY/WX    TMP DP  RH WIND       PRES   REMARKS
SAVANNAH       PTCLDY    74  72  93 CALM      30.10S
VALDOSTA       CLEAR     75  73  93 CALM      30.08S
ALMA           CLEAR     73  72  96 E3        30.09S
ST SIMONS      MOCLDY    81  76  84 CALM      30.08S
FT STEWART     CLEAR     74  72  93 CALM      30.07F
ALBANY         CLEAR     77  71  82 CALM      30.09F
HUNTER AFB     CLEAR     75  75 100 CALM      30.07S
MOODY AFB      CLEAR     75  71  86 CALM      30.07S
BRUNSWICK      MOCLDY    75  75 100 CALM      30.09F


CITY           SKY/WX    TMP DP  RH WIND       PRES   REMARKS
BAINBRIDGE*    CLEAR     77  70  78 CALM      30.07S
MOULTRIE*      CLEAR     77  70  78 CALM      30.09S
VIDALIA*       CLEAR     72  70  94 CALM      30.10F
WAYCROSS*      CLEAR     79  78  96 CALM      30.09S
DOUGLAS*       CLEAR     77  73  88 E3        30.11S
$$


USA.gov is the U.S. government's official web portal to all federal, state and local government web resources and services.